TimeMST,TemperatureF,Dew PointF,Humidity,Sea Level PressureIn,VisibilityMPH,Wind Direction,Wind SpeedMPH,Gust SpeedMPH,PrecipitationIn,Events,Conditions,WindDirDegrees,DateUTC
12:51 AM,86.0,70.0,59,29.84,10.0,East,6.9,-,N/A,,Scattered Clouds,90,2013-07-23 07:51:00
1:51 AM,84.0,70.0,63,29.83,10.0,East,6.9,-,N/A,,Scattered Clouds,100,2013-07-23 08:51:00
2:51 AM,84.0,71.1,65,29.83,10.0,East,3.5,-,N/A,,Scattered Clouds,100,2013-07-23 09:51:00
3:51 AM,82.9,71.1,67,29.83,10.0,East,5.8,-,N/A,,Partly Cloudy,90,2013-07-23 10:51:00
4:51 AM,82.0,71.1,69,29.84,10.0,Calm,Calm,-,N/A,,Scattered Clouds,0,2013-07-23 11:51:00
5:51 AM,82.9,70.0,65,29.86,10.0,East,5.8,-,N/A,,Partly Cloudy,90,2013-07-23 12:51:00
6:51 AM,84.0,71.1,65,29.87,10.0,East,3.5,-,N/A,,Partly Cloudy,100,2013-07-23 13:51:00
7:51 AM,86.0,70.0,59,29.89,10.0,Variable,3.5,-,N/A,,Partly Cloudy,0,2013-07-23 14:51:00
8:51 AM,90.0,64.0,42,29.89,10.0,West,8.1,-,N/A,,Partly Cloudy,280,2013-07-23 15:51:00
9:51 AM,91.0,63.0,39,29.89,10.0,NW,8.1,-,N/A,,Partly Cloudy,320,2013-07-23 16:51:00
10:51 AM,95.0,62.1,33,29.88,10.0,West,8.1,-,N/A,,Partly Cloudy,280,2013-07-23 17:51:00
11:51 AM,95.0,62.1,33,29.86,10.0,Variable,3.5,-,N/A,,Partly Cloudy,0,2013-07-23 18:51:00
12:51 PM,97.0,62.1,31,29.83,10.0,West,9.2,-,N/A,,Partly Cloudy,280,2013-07-23 19:51:00
1:51 PM,99.0,61.0,28,29.81,10.0,WNW,12.7,17.3,N/A,,Partly Cloudy,290,2013-07-23 20:51:00
2:51 PM,100.0,60.1,27,29.78,10.0,SW,8.1,18.4,N/A,,Partly Cloudy,220,2013-07-23 21:51:00
3:51 PM,100.9,60.1,26,29.75,10.0,West,10.4,20.7,N/A,,Partly Cloudy,260,2013-07-23 22:51:00
4:51 PM,100.9,60.1,26,29.74,10.0,West,9.2,-,N/A,,Partly Cloudy,260,2013-07-23 23:51:00
5:51 PM,100.9,57.9,24,29.73,10.0,West,10.4,-,N/A,,Partly Cloudy,280,2013-07-24 00:51:00
6:51 PM,99.0,57.0,25,29.73,10.0,West,10.4,-,N/A,,Partly Cloudy,270,2013-07-24 01:51:00
7:51 PM,99.0,57.0,25,29.74,10.0,West,8.1,-,N/A,,Partly Cloudy,260,2013-07-24 02:51:00
8:51 PM,97.0,59.0,28,29.75,10.0,West,11.5,-,N/A,,Partly Cloudy,260,2013-07-24 03:51:00
9:51 PM,95.0,60.1,31,29.76,10.0,West,9.2,-,N/A,,Partly Cloudy,260,2013-07-24 04:51:00
10:51 PM,93.9,60.1,32,29.78,10.0,WSW,4.6,-,N/A,,Partly Cloudy,250,2013-07-24 05:51:00
11:51 PM,95.0,60.1,31,29.78,10.0,NW,6.9,-,N/A,,Partly Cloudy,310,2013-07-24 06:51:00